Regional Weather Roundup
Issued by NWS

Home | Current Version | Previous Version | Text Only | Print | Product List | Glossary On
Versions: 1 2 3 4 5 6 7 8 9 10 11 12 13 14 15 16 17 18 19 20 21 22 23 24 25 26 27 28 29 30 31 32 33 34 35 36 37 38 39 40 41 42 43 44 45 46 47 48 49 50
000
ASUS43 KDMX 272006
RWRIA

WEATHER ROUNDUP FOR IOWA
NATIONAL WEATHER SERVICE DES MOINES IA
300 PM CDT TUE JUN 27 2017

NOTE: "FAIR" INDICATES FEW OR NO CLOUDS BELOW 12,000 FEET WITH NO
SIGNIFICANT WEATHER AND/OR OBSTRUCTIONS TO VISIBILITY.

* - THESE STATIONS ARE NOT NWS STATIONS...THUS NOT UNDER NWS
QUALITY CONTROL.  THEY ALSO DO NOT REPORT WEATHER SUCH
AS PRECIPITATION OR FOG.

IAZ001>003-012>014-020>022-031>034-043>046-272100-
   NORTHWEST IOWA

CITY           SKY/WX    TMP DP  RH WIND       PRES   REMARKS
CARROLL *      MOSUNNY   77  50  38 S14G23    29.97F
CHEROKEE *     MOSUNNY   76  46  34 S18G24    29.93F
DENISON *      MOSUNNY   77  55  47 S16G25    29.96F
LE MARS *      SUNNY     77  54  44 S16G26    29.90F
ORANGE CITY *  SUNNY     77  48  36 S18G25    29.90F
SHELDON *      SUNNY     77  45  31 S18G25    29.90F
SIOUX CITY     SUNNY     80  55  42 S21G28    29.90F HX  80
SPENCER        SUNNY     79  44  28 S21G31    29.94F
STORM LAKE *   CLOUDY    75  46  35 S20G26    29.95F
$$

IAZ055>058-069>071-079>083-090>094-272100-
   SOUTHWEST IOWA

CITY           SKY/WX    TMP DP  RH WIND       PRES   REMARKS
ATLANTIC *     MOSUNNY   77  57  50 S16G23    29.97F
AUDUBON *      SUNNY     79  55  44 S15       29.98F
CLARINDA *     SUNNY     79  61  53 S14G22    29.99F HX  80
COUNCIL BLFS * SUNNY     77  61  57 SE20G26   29.95F
CRESTON *      MOSUNNY   77  57  50 S14       30.02F
HARLAN  *      CLOUDY    79  59  50 S15G25    29.99F HX  80
LAMONI         SUNNY     77  56  48 S13       30.02F
RED OAK *      SUNNY     77  61  57 S16G25    29.96F
SHENANDOAH *   MOSUNNY   79  63  57 SE17      29.97F HX  80
$$

IAZ047>049-059>061-072>074-084-272100-
   CENTRAL IOWA

CITY           SKY/WX    TMP DP  RH WIND       PRES   REMARKS
AMES           SUNNY     76  50  40 SE10G20   30.01F
ANKENY *       SUNNY     75  50  41 S10G22    30.02F
BOONE *        SUNNY     75  48  38 S14G22    30.00F
CHARITON *     SUNNY     77  52  41 S9G17     30.02F
DES MOINES     PTSUNNY   79  50  36 SE16G23   30.01F
GRINNELL*      SUNNY     75  43  31 S14       30.05F
KNOXVILLE *    SUNNY     75  50  41 SE14G21   30.02F
MARSHALLTOWN   SUNNY     75  43  31 S16G26    30.03F
NEWTON *       SUNNY     75  46  35 S12       30.03F
PELLA *        SUNNY     76  45  33 SE9       30.05F
PERRY *          N/A     76  47  34 S14G20    30.00F
$$

IAZ004>006-015-016-023>025-035-036-272100-
   NORTH CENTRAL IOWA

CITY           SKY/WX    TMP DP  RH WIND       PRES   REMARKS
ALGONA *       SUNNY     75  43  31 S17       29.98F
CLARION *        N/A     77  45  31 S17G24    29.99F
ESTHERVILLE    SUNNY     74  44  34 S21G29    29.95F
FORT DODGE *   SUNNY     75  46  35 S13       30.00F
MASON CITY     CLOUDY    75  42  30 S16G23    30.02F
FOREST CITY *    N/A     77  27  15 S15G23    30.00F
WEBSTER CITY * SUNNY     75  46  35 S10G18    29.98F
IOWA FALLS *     N/A     76  43  31 SE15G21   30.03F
$$

IAZ007>011-017>019-026>030-037>042-050>054-066-272100-
   NORTHEAST IOWA

CITY           SKY/WX    TMP DP  RH WIND       PRES   REMARKS
CEDAR RAPIDS   SUNNY     74  46  36 S10G18    30.06F
CHARLES CITY * SUNNY     73  41  31 S13G21    30.03F
CLINTON *      SUNNY     74  47  38 S10       30.08F
DECORAH *      SUNNY     72  45  37 SW10      30.03F
DUBUQUE        SUNNY     72  45  37 SW10      30.08F
MONTICELLO *   SUNNY     73  46  38 S12       30.06F
OELWEIN *      SUNNY     73  45  35 S14       30.05
WATERLOO       SUNNY     75  42  30 SE14      30.02F
$$

IAZ064-065-067-068-078-272100-
   EAST CENTRAL IOWA

CITY           SKY/WX    TMP DP  RH WIND       PRES   REMARKS
IOWA CITY      SUNNY     77  45  32 S8        30.07F
MT. PLEASANT * SUNNY     77  41  27 S9        30.07F
MUSCATINE *    SUNNY     77  43  29 SE8G14    30.07F
QUAD CITIES    SUNNY     76  45  33 SW7       30.07F
$$

IAZ062-063-075>077-085>089-095>099-272100-
   SOUTHEAST IOWA

CITY           SKY/WX    TMP DP  RH WIND       PRES   REMARKS
BURLINGTON     SUNNY     75  43  31 SE6       30.07F
FAIRFIELD *    SUNNY     77  43  29 SW9       30.05F
FORT MADISON * SUNNY     75  46  35 SE5       30.07F
KEOKUK *       SUNNY     77  46  33 S9        30.06F
OSKALOOSA *      N/A     76  46  33 S10G18    30.05F
CENTERVILLE *    N/A     77  52  41 SE8       30.05F
OTTUMWA        SUNNY     76  45  33 MISG      30.04F
WASHINGTON *   SUNNY     75  45  33 SE13      30.07F
$$

ABBREVIATIONS USED IN REMARKS
   TC - TEMPERATURES IN CELSIUS
  WCI - WIND CHILL INDEX
   HX - HEAT INDEX
  VSB - VISIBILITY
$$





USA.gov is the U.S. government's official web portal to all federal, state and local government web resources and services.